Regional Weather Roundup
Issued by NWS

Home | Current Version | Previous Version | Graphics & Text | Print | Product List | Glossary On
Versions: 1 2 3 4 5 6 7 8 9 10 11 12 13 14 15 16 17 18 19 20 21 22 23 24 25 26 27 28 29 30 31 32 33 34 35 36 37 38 39 40 41 42 43 44 45 46 47 48 49 50
000
ASUS45 KTFX 201019
RWRMT
MONTANA HOURLY WEATHER ROUNDUP
NATIONAL WEATHER SERVICE GREAT FALLS MT
319 AM MST SAT DEC 20 2014

NOTE: "FAIR" INDICATES FEW OR NO CLOUDS BELOW 12000 FEET WITH NO
SIGNIFICANT WEATHER AND/OR OBSTRUCTIONS TO VISIBILITY.

* THESE STATIONS ARE NOT UNDER NWS QUALITY CONTROL. THEY DO NOT
   REPORT WEATHER SUCH AS PRECIPITATION OR FOG.

MTZ001>007-043-201100-
WEST OF THE DIVIDE
CITY           SKY/WX    TMP DP  RH WIND       PRES   REMARKS
KALISPELL      CLOUDY    36  32  85 S6        29.96R WCI  31
MISSOULA       FOG       27  25  92 CALM      30.02R VSB M1/4
BUTTE          CLEAR     28  18  66 CALM      29.96S
MULLAN PASS    CLOUDY    25  21  85 VRB3      29.91R
* ESSEX        N/A       32  31  96 N/A        N/A
* EUREKA APT   CLEAR     37  30  76 SE7       29.96R WCI  32
* HAMILTON APT PTCLDY    32  23  69 S9        30.00R WCI  24
* LIBBY APT    PTCLDY    30  28  92 CALM       N/A
* LINCOLN      N/A       31  24  75 S6G13      N/A   WCI  25
* LOOKOUT PASS N/A       29  27  92 N/A        N/A
* POLSON       N/A       31  31 100 S1         N/A
* RONAN APT    CLEAR     34  30  85 N/A        N/A
* SEELEY LAKE  N/A       23  22  96 NE1        N/A
* THOMP F APT  PTCLDY    26  25  96 E1         N/A
$$

MTZ008-052>055-201100-
SOUTHWEST MONTANA
CITY           SKY/WX    TMP DP  RH WIND       PRES   REMARKS
BOZEMAN        PTCLDY    28  25  89 NE6       29.97S WCI  21
DILLON         CLEAR     25  18  75 SW13      29.96F WCI  13
* W YELLOWSTON PTCLDY    26  23  88 S1G10      N/A
* THREE FORKS  PTCLDY    34  25  70 N/A        N/A
* BOULDER HILL N/A       24  18  78 S2         N/A
* MONIDA PASS  N/A       24  24 100 SE10       N/A   WCI  14
* RAYNOLDS PAS N/A       25  12  58 SW4        N/A
* WHITEHALL    N/A       34  25  70 W7G17      N/A   WCI  28
* WISE RIVER   N/A       25  21  85 SW3        N/A
$$

MTZ009>010-012-014-046-048-049-054-201100-
EAST SLOPES AND CENTRAL MONTANA
CITY           SKY/WX    TMP DP  RH WIND       PRES   REMARKS
CUT BANK       MOCLDY    34  25  70 W21       29.79R WCI  22
GREAT FALLS    PTCLDY    34  21  59 SW14      29.85S WCI  24
HELENA         CLEAR     34  19  54 CALM      29.95S
MALMSTROM AFB  PTCLDY    34  25  70 SW16      29.88R WCI  24
* CONRAD       PTCLDY    30  27  89 CALM       N/A
* DEARBORN     N/A       38  22  53 NW1G8      N/A
* EAST GLACIER N/A       32  20  61 W21G31     N/A   WCI  20
* MONARCH      N/A       32  14  47 SW19G29    N/A   WCI  20
* PENDROY      N/A       32  19  59 W16        N/A   WCI  21
* SWEET GRASS  N/A       34  25  70 W25G33     N/A   WCI  21
* WHITE SULPH  N/A       27  21  78 S2G10      N/A
$$

MTZ011-013-016-021-035-040-045-047-050-051-201100-
NORTH CENTRAL MONTANA
CITY           SKY/WX    TMP DP  RH WIND       PRES   REMARKS
HAVRE          CLOUDY    36  28  73 SW17      29.80S WCI  26
LEWISTOWN      MOCLDY    36  23  59 SW17      29.87R WCI  26
* N BAR RANCH  PTCLDY    37  16  42 W15G21    29.86R WCI  28
* CHINOOK      PTCLDY    36  30  79 W6        29.81R WCI  31
* CHESTER      N/A       29  24  82 SW3        N/A
* DENTON       N/A       35  23  62 SW15       N/A   WCI  25
* JUDITH GAP   N/A       30  22  72 W7G13      N/A   WCI  23
* LOMA         N/A       39  26  60 SW12G17    N/A   WCI  32
$$

MTZ017>020-022>027-061-062-201100-
NORTHEAST MONTANA
CITY           SKY/WX    TMP DP  RH WIND       PRES   REMARKS
GLASGOW        CLOUDY    28  27  96 SE3       29.82S
GLENDIVE       CLOUDY    30  25  82 SW8       29.85F WCI  22
JORDAN         CLEAR     30  27  89 W9        29.83S WCI  22
SIDNEY         CLOUDY    21  19  92 CALM      29.88S
WOLF POINT     CLOUDY    25  21  85 E3        29.85S
* BEAVER HILL  N/A       34  24  67 S6         N/A   WCI  29
* CIRCLE       N/A       34  28  79 SW2        N/A
* LINDSAY DVD  N/A       37  25  62 S3         N/A
* NAVAJO       N/A       24  22  92 S4         N/A
* PLENTYWOOD A PTCLDY    19  18  96 CALM      29.83S
* POPLAR APT   MOCLDY    21  19  92 CALM      29.84S
* SACO         N/A       31  30  96 N/A        N/A
$$

MTZ028>042-056>058-201100-
SOUTHCENTRAL AND SOUTHEAST MONTANA
CITY           SKY/WX    TMP DP  RH WIND       PRES   REMARKS
BAKER          CLOUDY    28  27  96 CALM      29.86S
BILLINGS       MOCLDY    34  21  59 SW8       29.92R WCI  27
LIVINGSTON     MOCLDY    37  25  62 W20G25    29.93R WCI  27
MILES CITY     CLOUDY    30  25  82 S3        29.87R
* FORSYTH APT  MOCLDY    37  27  67 W7        29.87R WCI  32
* LAUREL APT   PTCLDY    30  16  56 N/A        N/A
* ROUNDUP APT  MOCLDY    43  23  45 W18G24     N/A
* ALZADA       N/A       31  22  69 W2         N/A
* HYSHAM       N/A       33  19  56 W4G9       N/A
* LAME DEER    N/A       35  22  59 W6         N/A   WCI  30
* REED POINT   N/A       24  22  92 E4         N/A
* ROSCOE HILL  N/A       35  11  37 N/A        N/A
$$

REGIONAL REPORTS...DAKOTAS
CITY           SKY/WX    TMP DP  RH WIND       PRES   REMARKS
WILLISTON      MOCLDY    10   9  96 CALM      29.87S
DICKINSON      CLOUDY    27  21  78 S3        29.84F
BEACH          CLOUDY    28  28 100 SE3       29.85F
CROSBY         FOG       18  18 100 SE7       29.87F VSB 1/2  WCI   9
TIOGA          FOG        7   7 100 E3        29.88F VSB M1/4
WATFORD CITY   PTCLDY    12  10  92 CALM      29.85S
BISMARCK       FOG       16  12  84 E5        29.94S VSB 3/4  WCI   8
GRAND FORKS    FOG       28  27  96 S6        30.00F WCI  21
FARGO          CLOUDY    30  28  92 S9        30.03S WCI  22
BUFFALO SD     PTCLDY    30  23  75 CALM      29.80F
RAPID CITY     CLEAR     30  18  61 NW6       29.90R WCI  24
$$

REGIONAL REPORTS...WYOMING/IDAHO/WASHINGTON
CITY           SKY/WX    TMP DP  RH WIND       PRES   REMARKS
GILLETTE       CLOUDY    36  25  64 E5        29.89F WCI  32
SHERIDAN       CLOUDY    28  21  75 CALM      29.90R
CODY           MOCLDY    37  21  52 SW15G28   29.91F WCI  28
YELLOWSTONE LA MOCLDY    25  19  78 VRB6      30.02S WCI  18
SALMON         CLOUDY    25  23  92 CALM      30.03R VSB M1/4
MULLAN PASS    CLOUDY    25  21  85 VRB3      29.91S
SAND POINT     CLOUDY    34  34 100 CALM      29.99R
SPOKANE        CLOUDY    34  34 100 SE3       29.95F
$$

REGIONAL REPORTS...ALBERTA
CITY           SKY/WX    TMP DP  RH WIND       PRES   REMARKS
CALGARY        FAIR      37  14  39 W15       29.71R WCI  28
LETHBRIDGE     CLEAR     37  27  67 W28G37    29.76R WCI  25
MEDICINE HAT   MOCLDY    34  30  85 S6        29.73S WCI  29
EDMONTON       FAIR      14  12  92 SW3       29.68S
WATERTON GATE  N/A       34  21  59 SW16G28    N/A   WCI  24
CARDSTON       N/A       34  23  64 NW5        N/A   WCI  29
MILK RIVER     N/A       34  25  70 W15        N/A   WCI  24
$$

REGIONAL REPORTS...SASKATCHEWAN
CITY           SKY/WX    TMP DP  RH WIND       PRES   REMARKS
SWIFT CURRENT  CLOUDY    36  30  79 SW16      29.68S WCI  26
VAL MARIE      N/A       32  32 100 CALM       N/A
ASSINIBOIA     N/A       27  25  92 SE5        N/A   WCI  21
CORONACH       N/A       27  25  92 E6         N/A   WCI  20

$$




USA.gov is the U.S. government's official web portal to all federal, state and local government web resources and services.